TimePDT,TemperatureF,Dew PointF,Humidity,Sea Level PressureIn,VisibilityMPH,Wind Direction,Wind SpeedMPH,Gust SpeedMPH,PrecipitationIn,Events,Conditions,WindDirDegrees,DateUTC
12:52 AM,68.0,19.9,16,29.85,10.0,West,3.5,-,N/A,,Clear,260,2013-10-23 07:52:00
1:52 AM,66.9,21.0,17,29.85,10.0,Calm,Calm,-,N/A,,Clear,0,2013-10-23 08:52:00
2:52 AM,66.9,21.9,18,29.83,10.0,Calm,Calm,-,N/A,,Clear,0,2013-10-23 09:52:00
3:52 AM,61.0,19.0,20,29.83,10.0,Calm,Calm,-,N/A,,Clear,0,2013-10-23 10:52:00
4:52 AM,63.0,21.0,20,29.84,10.0,Calm,Calm,-,N/A,,Clear,0,2013-10-23 11:52:00
5:52 AM,62.1,21.9,21,29.84,10.0,West,3.5,-,N/A,,Clear,260,2013-10-23 12:52:00
6:52 AM,60.1,21.0,22,29.86,10.0,Calm,Calm,-,N/A,,Clear,0,2013-10-23 13:52:00
7:52 AM,61.0,21.0,21,29.86,10.0,Calm,Calm,-,N/A,,Clear,0,2013-10-23 14:52:00
8:52 AM,69.1,21.9,17,29.88,10.0,Calm,Calm,-,N/A,,Clear,0,2013-10-23 15:52:00
9:52 AM,75.9,23.0,14,29.87,10.0,Calm,Calm,-,N/A,,Clear,0,2013-10-23 16:52:00
10:52 AM,79.0,24.1,13,29.87,10.0,Calm,Calm,-,N/A,,Clear,0,2013-10-23 17:52:00
11:52 AM,84.9,24.1,11,29.85,10.0,Variable,3.5,-,N/A,,Clear,0,2013-10-23 18:52:00
12:52 PM,87.1,23.0,10,29.82,10.0,Variable,3.5,-,N/A,,Clear,0,2013-10-23 19:52:00
1:52 PM,90.0,21.9,8,29.80,10.0,NNW,3.5,-,N/A,,Clear,340,2013-10-23 20:52:00
2:52 PM,89.1,23.0,9,29.79,10.0,Calm,Calm,-,N/A,,Clear,0,2013-10-23 21:52:00
3:52 PM,89.1,21.0,8,29.78,10.0,Calm,Calm,-,N/A,,Clear,0,2013-10-23 22:52:00
4:52 PM,89.1,25.0,10,29.77,10.0,South,4.6,-,N/A,,Clear,180,2013-10-23 23:52:00
5:52 PM,86.0,30.9,14,29.77,10.0,South,3.5,-,N/A,,Clear,180,2013-10-24 00:52:00
6:52 PM,80.1,35.1,20,29.78,10.0,SSE,4.6,-,N/A,,Clear,150,2013-10-24 01:52:00
7:52 PM,77.0,34.0,21,29.78,10.0,Calm,Calm,-,N/A,,Clear,0,2013-10-24 02:52:00
8:52 PM,73.0,30.0,20,29.79,10.0,North,3.5,-,N/A,,Clear,360,2013-10-24 03:52:00
9:52 PM,73.0,28.9,20,29.79,10.0,WNW,3.5,-,N/A,,Clear,300,2013-10-24 04:52:00
10:52 PM,69.1,23.0,18,29.80,10.0,North,3.5,-,N/A,,Clear,350,2013-10-24 05:52:00
11:52 PM,71.1,23.0,16,29.80,10.0,North,4.6,-,N/A,,Clear,360,2013-10-24 06:52:00